FW5225 Weather Reports


time (UTC)temp
C
wind
direction
speed
KPH
gust
KPH
rain 1hr
cm
rain 24hr
cm
rain mn
cm
humidity
%
barometer
mb
20260901220557 38 155 3.2 8.0 0.00 0.00 0.00 30 1008.8
20260901220115 38 180 1.6 9.7 0.00 0.00 0.00 31 1008.9
20260901215556 37 182 1.6 14.5 0.00 0.00 0.00 31 1009.0
20260901215056 38 292 6.4 14.5 0.00 0.00 0.00 31 1009.0
20260901214557 38 296 3.2 11.3 0.00 0.00 0.00 31 1009.1
20260901214054 38 179 3.2 11.3 0.00 0.00 0.00 31 1009.2
20260901213559 38 227 3.2 11.3 0.00 0.00 0.00 32 1009.3
20260901213054 37 167 4.8 11.3 0.00 0.00 0.00 33 1009.4
20260901212553 37 142 3.2 17.7 0.00 0.00 0.00 33 1009.5
20260901212049 37 157 1.6 11.3 0.00 0.00 0.00 33 1009.6
20260901211549 37 150 3.2 8.0 0.00 0.00 0.00 33 1009.7
20260901211048 38 310 1.6 11.3 0.00 0.00 0.00 33 1009.8
20260901210547 37 177 1.6 11.3 0.00 0.00 0.00 33 1009.9
20260901210048 37 185 4.8 12.9 0.00 0.00 0.00 34 1010.0
20260901205545 37 265 3.2 11.3 0.00 0.00 0.00 34 1010.0
20260901205044 37 180 4.8 11.3 0.00 0.00 0.00 34 1010.1
20260901204543 37 122 0.0 6.4 0.00 0.00 0.00 35 1010.2
20260901204045 37 273 0.0 9.7 0.00 0.00 0.00 35 1010.3
20260901203545 37 225 3.2 9.7 0.00 0.00 0.00 35 1010.4
20260901203047 36 166 1.6 11.3 0.00 0.00 0.00 36 1010.4
20260901202539 37 145 4.8 11.3 0.00 0.00 0.00 36 1010.5
20260901202041 36 135 6.4 12.9 0.00 0.00 0.00 36 1010.6
20260901201541 36 81 0.0 6.4 0.00 0.00 0.00 36 1010.6
20260901201037 36 197 1.6 6.4 0.00 0.00 0.00 37 1010.7
20260901200535 36 184 3.2 6.4 0.00 0.00 0.00 37 1010.7
20260901200035 36 233 1.6 11.3 0.00 0.00 0.00 37 1010.9
20260901195534 36 200 1.6 11.3 0.00 0.00 0.00 38 1010.9
20260901195033 35 146 0.0 6.4 0.00 0.00 0.00 38 1011.0
20260901194538 36 217 1.6 11.3 0.00 0.00 0.00 38 1011.0
20260901194031 35 192 3.2 11.3 0.00 0.00 0.00 38 1011.1
20260901193532 35 152 1.6 8.0 0.00 0.00 0.00 38 1011.1
20260901193031 35 210 1.6 14.5 0.00 0.00 0.00 39 1011.2
20260901192530 35 74 8.0 14.5 0.00 0.00 0.00 37 1011.2
20260901192029 35 121 3.2 9.7 0.00 0.00 0.00 38 1011.2
20260901191528 35 182 0.0 9.7 0.00 0.00 0.00 39 1011.4
20260901191032 35 155 3.2 8.0 0.00 0.00 0.00 40 1011.4
20260901190527 35 153 1.6 12.9 0.00 0.00 0.00 39 1011.5
20260901190025 34 153 3.2 16.1 0.00 0.00 0.00 40 1011.6
20260901185525 34 123 3.2 14.5 0.00 0.00 0.00 41 1011.6
20260901185026 34 88 3.2 8.0 0.00 0.00 0.00 40 1011.8
20260901184521 34 82 1.6 11.3 0.00 0.00 0.00 41 1011.8
20260901184020 33 110 4.8 12.9 0.00 0.00 0.00 41 1011.9
20260901183518 33 346 1.6 6.4 0.00 0.00 0.00 41 1012.0
20260901183019 33 293 0.0 8.0 0.00 0.00 0.00 43 1012.1
20260901182517 33 51 1.6 8.0 0.00 0.00 0.00 41 1012.2
20260901182014 33 173 0.0 12.9 0.00 0.00 0.00 43 1012.2
20260901181517 33 82 3.2 12.9 0.00 0.00 0.00 43 1012.3
20260901181012 33 117 4.8 11.3 0.00 0.00 0.00 43 1012.3
20260901180513 33 150 1.6 6.4 0.00 0.00 0.00 43 1012.3
20260901180009 33 238 1.6 6.4 0.00 0.00 0.00 44 1012.3
20260901175509 32 155 1.6 6.4 0.00 0.00 0.00 44 1012.4
20260901175007 32 303 0.0 8.0 0.00 0.00 0.00 45 1012.4
20260901174506 32 57 1.6 9.7 0.00 0.00 0.00 45 1012.5
20260901174004 32 110 4.8 11.3 0.00 0.00 0.00 45 1012.5
20260901173504 32 94 1.6 9.7 0.00 0.00 0.00 45 1012.6
20260901173002 32 105 3.2 11.3 0.00 0.00 0.00 45 1012.6
20260901172501 32 104 4.8 9.7 0.00 0.00 0.00 46 1012.7
20260901172059 32 96 3.2 9.7 0.00 0.00 0.00 45 1012.7
20260901171558 31 148 0.0 8.0 0.00 0.00 0.00 47 1012.6
20260901171056 31 102 0.0 8.0 0.00 0.00 0.00 47 1012.7
20260901170555 31 71 3.2 8.0 0.00 0.00 0.00 47 1012.7
20260901170116 31 167 3.2 11.3 0.00 0.00 0.00 47 1012.7
20260901165552 31 59 1.6 11.3 0.00 0.00 0.00 48 1012.6
20260901165051 31 88 3.2 9.7 0.00 0.00 0.00 48 1012.6
20260901164552 31 58 1.6 6.4 0.00 0.00 0.00 49 1012.6
20260901164048 30 40 0.0 9.7 0.00 0.00 0.00 49 1012.6
20260901163548 30 34 3.2 8.0 0.00 0.00 0.00 49 1012.6
20260901163047 30 97 0.0 8.0 0.00 0.00 0.00 49 1012.6
20260901162546 30 67 1.6 8.0 0.00 0.00 0.00 50 1012.5
20260901162044 30 53 0.0 4.8 0.00 0.00 0.00 50 1012.5
20260901161543 30 113 1.6 9.7 0.00 0.00 0.00 51 1012.4
20260901161043 30 44 3.2 9.7 0.00 0.00 0.00 50 1012.5
20260901160541 30 86 0.0 9.7 0.00 0.00 0.00 50 1012.4
20260901160050 30 45 3.2 9.7 0.00 0.00 0.00 50 1012.4
20260901155540 30 163 1.6 4.8 0.00 0.00 0.00 51 1012.4
20260901155037 30 64 0.0 4.8 0.00 0.00 0.00 52 1012.4
20260901154537 29 86 3.2 4.8 0.00 0.00 0.00 52 1012.4
20260901154036 29 77 0.0 6.4 0.00 0.00 0.00 52 1012.4
20260901153536 29 160 3.2 8.0 0.00 0.00 0.00 52 1012.4
20260901153033 29 137 1.6 8.0 0.00 0.00 0.00 51 1012.3
20260901152533 29 89 1.6 8.0 0.00 0.00 0.00 52 1012.4
20260901152035 28 121 1.6 8.0 0.00 0.00 0.00 53 1012.4
20260901151530 28 85 1.6 9.7 0.00 0.00 0.00 54 1012.2
20260901151028 28 105 1.6 9.7 0.00 0.00 0.00 54 1012.2
20260901150526 28 74 3.2 8.0 0.00 0.00 0.00 55 1012.2
20260901150037 28 53 4.8 11.3 0.00 0.00 0.00 55 1012.2
20260901145523 27 69 4.8 11.3 0.00 0.00 0.00 55 1012.2
20260901145023 27 40 3.2 6.4 0.00 0.00 0.00 57 1012.2
20260901144521 27 42 3.2 6.4 0.00 0.00 0.00 58 1012.0
20260901144020 27 42 3.2 6.4 0.00 0.00 0.00 59 1012.0
20260901143518 27 36 3.2 8.0 0.00 0.00 0.00 60 1012.0
20260901143017 27 36 1.6 9.7 0.00 0.00 0.00 61 1011.9
20260901142517 26 23 4.8 9.7 0.00 0.00 0.00 61 1011.9
20260901142014 26 360 3.2 9.7 0.00 0.00 0.00 62 1011.9
20260901141513 26 37 4.8 9.7 0.00 0.00 0.00 62 1012.0
20260901141011 26 38 3.2 9.7 0.00 0.00 0.00 62 1011.9
20260901140510 26 34 3.2 8.0 0.00 0.00 0.00 62 1011.9
20260901140011 26 47 3.2 8.0 0.00 0.00 0.00 62 1011.9
20260901135508 26 51 4.8 8.0 0.00 0.00 0.00 62 1011.8
20260901135007 26 46 4.8 8.0 0.00 0.00 0.00 62 1011.7
20260901134505 26 26 3.2 8.0 0.00 0.00 0.00 62 1011.7
20260901134007 26 46 3.2 6.4 0.00 0.00 0.00 62 1011.6
20260901133503 26 44 1.6 4.8 0.00 0.00 0.00 62 1011.6
20260901133007 26 57 1.6 4.8 0.00 0.00 0.00 63 1011.5
20260901132502 26 38 1.6 6.4 0.00 0.00 0.00 62 1011.5
20260901132103 26 49 3.2 6.4 0.00 0.00 0.00 62 1011.5
20260901132001 26 38 3.2 6.4 0.00 0.00 0.00 62 1011.5
20260901131602 26 41 0.0 6.4 0.00 0.00 0.00 62 1011.4
20260901131103 25 50 0.0 6.4 0.00 0.00 0.00 62 1011.4
20260901130559 25 39 3.2 6.4 0.00 0.00 0.00 62 1011.3
20260901130059 25 61 1.6 3.2 0.00 0.00 0.00 63 1011.4
20260901125558 25 14 0.0 3.2 0.00 0.00 0.00 63 1011.4
20260901125058 25 27 0.0 4.8 0.00 0.00 0.00 63 1011.4
20260901124605 25 22 0.0 4.8 0.00 0.00 0.00 63 1011.3
20260901124056 25 348 1.6 4.8 0.00 0.00 0.00 64 1011.4
20260901123626 25 40 1.6 4.8 0.00 0.00 0.00 63 1011.3
20260901123056 25 11 0.0 4.8 0.00 0.00 0.00 63 1011.2
20260901122556 25 44 1.6 4.8 0.00 0.00 0.00 63 1011.2
20260901122054 25 38 1.6 6.4 0.00 0.00 0.00 62 1011.1
20260901121604 25 55 3.2 6.4 0.00 0.00 0.00 62 1011.1
20260901121058 25 60 1.6 3.2 0.00 0.00 0.00 63 1011.2
20260901120559 25 22 0.0 3.2 0.00 0.00 0.00 62 1011.1
20260901120059 25 23 0.0 3.2 0.00 0.00 0.00 62 1011.1
20260901115557 25 30 0.0 3.2 0.00 0.00 0.00 62 1011.2
20260901115053 26 40 0.0 3.2 0.00 0.00 0.00 62 1011.1
20260901114556 26 37 1.6 3.2 0.00 0.00 0.00 62 1011.1
20260901114052 26 30 0.0 3.2 0.00 0.00 0.00 61 1011.1
20260901113552 26 37 1.6 1.6 0.00 0.00 0.00 61 1011.1
20260901113058 26 29 0.0 3.2 0.00 0.00 0.00 61 1011.0
20260901112552 26 26 0.0 3.2 0.00 0.00 0.00 60 1010.9
20260901112050 26 48 0.0 4.8 0.00 0.00 0.00 59 1010.9
20260901111550 26 38 0.0 4.8 0.00 0.00 0.00 59 1010.9
20260901111050 26 39 1.6 4.8 0.00 0.00 0.00 59 1010.9
20260901110551 26 43 0.0 3.2 0.00 0.00 0.00 58 1010.8
20260901110050 26 54 0.0 3.2 0.00 0.00 0.00 58 1010.8
20260901105549 26 24 1.6 3.2 0.00 0.00 0.00 58 1010.8
20260901105048 26 51 0.0 4.8 0.00 0.00 0.00 57 1010.8
20260901104554 26 26 1.6 6.4 0.00 0.00 0.00 57 1010.8
20260901104048 26 42 3.2 6.4 0.00 0.00 0.00 57 1010.8
20260901103547 26 46 1.6 6.4 0.00 0.00 0.00 57 1010.8
20260901103047 26 49 1.6 4.8 0.00 0.00 0.00 57 1010.9
20260901102547 26 57 1.6 4.8 0.00 0.00 0.00 57 1010.9
20260901102046 26 52 3.2 4.8 0.00 0.00 0.00 57 1010.9
20260901101546 26 51 1.6 3.2 0.00 0.00 0.00 57 1011.0
20260901101045 26 39 0.0 3.2 0.00 0.00 0.00 58 1011.0
20260901100545 26 24 0.0 3.2 0.00 0.00 0.00 57 1011.0
20260901100051 26 5 0.0 3.2 0.00 0.00 0.00 58 1011.0
20260901095544 26 19 0.0 3.2 0.00 0.00 0.00 57 1011.0
20260901095045 26 49 0.0 3.2 0.00 0.00 0.00 56 1010.9
20260901094544 26 34 1.6 4.8 0.00 0.00 0.00 56 1010.9
20260901094047 26 48 1.6 6.4 0.00 0.00 0.00 56 1010.9
20260901093544 26 65 0.0 6.4 0.00 0.00 0.00 56 1010.9
20260901093044 26 43 1.6 4.8 0.00 0.00 0.00 56 1010.9
20260901092544 27 30 1.6 8.0 0.00 0.00 0.00 55 1010.9
20260901092043 27 33 1.6 8.0 0.00 0.00 0.00 55 1010.9
20260901091544 27 13 4.8 9.7 0.00 0.00 0.00 55 1010.9
20260901091044 27 25 4.8 9.7 0.00 0.00 0.00 55 1010.9
20260901090542 27 33 3.2 9.7 0.00 0.00 0.00 55 1010.9
20260901090042 27 64 4.8 9.7 0.00 0.00 0.00 55 1011.0
20260901085547 26 36 1.6 6.4 0.00 0.00 0.00 55 1011.0
20260901085043 26 38 3.2 4.8 0.00 0.00 0.00 55 1010.9
20260901084555 26 43 1.6 4.8 0.00 0.00 0.00 56 1011.0
20260901084042 26 37 0.0 3.2 0.00 0.00 0.00 57 1011.0
20260901083542 26 29 0.0 3.2 0.00 0.00 0.00 57 1011.0
20260901083042 26 12 0.0 1.6 0.00 0.00 0.00 56 1011.0
20260901082541 26 41 0.0 4.8 0.00 0.00 0.00 56 1011.0
20260901082040 26 40 1.6 4.8 0.00 0.00 0.00 57 1011.0
20260901081540 26 47 0.0 3.2 0.00 0.00 0.00 56 1011.1
20260901081040 26 50 0.0 1.6 0.00 0.00 0.00 57 1011.1
20260901080540 26 50 0.0 0.0 0.00 0.00 0.00 56 1011.1
20260901080047 26 50 0.0 0.0 0.00 0.00 0.00 57 1011.1
20260901075541 26 50 0.0 1.6 0.00 0.00 0.00 56 1011.0
20260901075043 26 50 0.0 0.0 0.00 0.00 0.00 57 1011.1
20260901074553 27 50 0.0 3.2 0.00 0.00 0.00 57 1011.1
20260901074040 27 50 0.0 3.2 0.00 0.00 0.00 56 1011.1
20260901073538 27 50 1.6 3.2 0.00 0.00 0.00 55 1011.0
20260901073037 27 36 0.0 3.2 0.00 0.00 0.00 55 1011.1
20260901072537 27 42 0.0 3.2 0.00 0.00 0.00 56 1011.1
20260901072036 27 5 0.0 3.2 0.00 0.00 0.00 55 1011.0
20260901071537 27 19 0.0 3.2 0.00 0.00 0.00 55 1011.0
20260901071034 27 40 0.0 3.2 0.00 0.00 0.00 55 1010.9
20260901070533 27 40 0.0 4.8 0.00 0.00 0.00 54 1010.9
20260901070036 27 34 0.0 4.8 0.00 0.00 0.00 54 1010.8
20260901065534 27 26 0.0 0.0 0.00 0.00 0.00 54 1010.9
20260901065033 27 34 0.0 3.2 0.00 0.00 0.00 53 1010.8
20260901064533 27 31 0.0 3.2 0.00 0.00 0.00 53 1010.9
20260901064032 27 44 1.6 3.2 0.00 0.00 0.00 54 1010.8
20260901063533 27 35 1.6 3.2 0.00 0.00 0.00 53 1010.8
20260901063032 27 38 0.0 4.8 0.00 0.00 0.00 54 1010.8
20260901062532 27 21 0.0 4.8 0.00 0.00 0.00 53 1010.8
20260901062031 27 18 1.6 6.4 0.00 0.00 0.00 53 1010.7
20260901061531 27 34 1.6 6.4 0.00 0.00 0.00 53 1010.7
20260901061032 27 46 0.0 3.2 0.00 0.00 0.00 53 1010.8
20260901060533 27 34 0.0 3.2 0.00 0.00 0.00 54 1010.8
20260901060031 27 26 0.0 3.2 0.00 0.00 0.00 54 1010.7
20260901055530 27 360 0.0 3.2 0.00 0.00 0.00 55 1010.8
20260901055031 27 37 0.0 6.4 0.00 0.00 0.00 53 1010.7
20260901054531 27 50 0.0 3.2 0.00 0.00 0.00 53 1010.7
20260901054031 27 40 0.0 3.2 0.00 0.00 0.00 55 1010.7
20260901053531 27 16 0.0 3.2 0.00 0.00 0.00 54 1010.7
20260901053035 27 63 0.0 4.8 0.00 0.00 0.00 53 1010.6
20260901052529 27 116 0.0 4.8 0.00 0.00 0.00 52 1010.5
20260901052030 27 115 0.0 4.8 0.00 0.00 0.00 52 1010.5
20260901051530 27 34 0.0 3.2 0.00 0.00 0.00 53 1010.5
20260901051033 28 45 0.0 1.6 0.00 0.00 0.00 52 1010.4
20260901050529 28 45 0.0 3.2 0.00 0.00 0.00 51 1010.4
20260901050029 28 45 0.0 3.2 0.00 0.00 0.00 49 1010.4
20260901045530 28 113 0.0 3.2 0.00 0.00 0.00 49 1010.4
20260901045028 28 85 0.0 3.2 0.00 0.00 0.00 49 1010.4
20260901044535 28 82 0.0 3.2 0.00 0.00 0.00 49 1010.3
20260901044028 28 94 0.0 4.8 0.00 0.00 0.00 49 1010.3
20260901043528 28 88 0.0 3.2 0.00 0.00 0.00 50 1010.3
20260901043028 28 100 0.0 3.2 0.00 0.00 0.00 49 1010.3
20260901042530 28 78 0.0 3.2 0.00 0.00 0.00 50 1010.3
20260901042028 28 57 0.0 3.2 0.00 0.00 0.00 52 1010.4
20260901041533 28 49 0.0 3.2 0.00 0.00 0.00 52 1010.3
20260901041027 28 65 0.0 3.2 0.00 0.00 0.00 51 1010.1
20260901040527 28 85 0.0 6.4 0.00 0.00 0.00 49 1010.1
20260901040027 28 104 1.6 4.8 0.00 0.00 0.00 49 1010.0
20260901035527 28 109 0.0 4.8 0.00 0.00 0.00 49 1010.1
20260901035029 28 58 0.0 4.8 0.00 0.00 0.00 50 1010.0
20260901034535 28 51 0.0 4.8 0.00 0.00 0.00 49 1009.8
20260901034027 28 117 0.0 4.8 0.00 0.00 0.00 49 1009.8
20260901033526 28 136 0.0 4.8 0.00 0.00 0.00 49 1009.8
20260901033029 28 138 0.0 3.2 0.00 0.00 0.00 49 1009.7
20260901032526 28 155 0.0 3.2 0.00 0.00 0.00 49 1009.6
20260901032026 28 140 0.0 3.2 0.00 0.00 0.00 49 1009.6
20260901031534 29 143 0.0 4.8 0.00 0.00 0.00 50 1009.6
20260901031025 29 134 1.6 4.8 0.00 0.00 0.00 50 1009.4
20260901030525 29 140 0.0 4.8 0.00 0.00 0.00 51 1009.4
20260901030025 29 153 0.0 4.8 0.00 0.00 0.00 51 1009.4
20260901025529 29 171 1.6 4.8 0.00 0.00 0.00 51 1009.3
20260901025027 29 150 0.0 4.8 0.00 0.00 0.00 51 1009.2
20260901024525 29 86 1.6 4.8 0.00 0.00 0.00 50 1009.1
20260901024026 29 141 0.0 4.8 0.00 0.00 0.00 50 1009.0
20260901023526 29 103 0.0 3.2 0.00 0.00 0.00 50 1009.1
20260901023024 29 201 0.0 3.2 0.00 0.00 0.00 50 1008.9
20260901022524 29 106 0.0 3.2 0.00 0.00 0.00 50 1008.8
20260901022027 29 130 0.0 3.2 0.00 0.00 0.00 50 1008.7
20260901021525 29 111 0.0 6.4 0.00 0.00 0.00 50 1008.8
20260901021024 29 119 1.6 6.4 0.00 0.00 0.00 49 1008.8
20260901020524 30 101 0.0 9.7 0.00 0.00 0.00 49 1008.9
20260901020024 30 130 1.6 9.7 0.00 0.00 0.00 49 1008.9
20260901015525 30 161 1.6 6.4 0.00 0.00 0.00 48 1009.1
20260901015022 30 146 1.6 8.0 0.00 0.00 0.00 48 1009.1
20260901014523 30 134 1.6 8.0 0.00 0.00 0.00 48 1009.1
20260901014023 30 186 1.6 9.7 0.00 0.00 0.00 47 1009.2
20260901013524 30 143 1.6 9.7 0.00 0.00 0.00 47 1009.1
20260901013029 30 161 1.6 8.0 0.00 0.00 0.00 46 1009.1
20260901012522 30 123 3.2 8.0 0.00 0.00 0.00 46 1009.0
20260901012021 30 128 0.0 6.4 0.00 0.00 0.00 46 1009.0
20260901011521 30 119 0.0 6.4 0.00 0.00 0.00 45 1008.9
20260901011021 30 124 1.6 9.7 0.00 0.00 0.00 45 1009.0
20260901010524 30 112 0.0 12.9 0.00 0.00 0.00 45 1009.0
20260901010027 30 88 1.6 12.9 0.00 0.00 0.00 45 1009.0
20260901005525 30 124 0.0 6.4 0.00 0.00 0.00 45 1009.0
20260901005021 31 139 0.0 8.0 0.00 0.00 0.00 45 1009.0
20260901004521 31 90 1.6 12.9 0.00 0.00 0.00 45 1009.0
20260901004020 31 70 1.6 12.9 0.00 0.00 0.00 44 1008.8
20260901003520 31 161 1.6 11.3 0.00 0.00 0.00 44 1008.8
20260901003030 31 69 3.2 9.7 0.00 0.00 0.00 44 1008.9
20260901002520 31 154 1.6 6.4 0.00 0.00 0.00 45 1008.9
20260901002020 31 88 3.2 12.9 0.00 0.00 0.00 45 1008.8
20260901001521 31 71 4.8 12.9 0.00 0.00 0.00 44 1008.8
20260901001019 31 111 3.2 9.7 0.00 0.00 0.00 44 1008.8
20260901000519 31 140 3.2 9.7 0.00 0.00 0.00 44 1008.9
20260901000019 31 146 1.6 9.7 0.00 0.00 0.00 44 1008.9
20260831235523 31 69 1.6 12.9 0.00 0.00 0.00 44 1009.0
20260831235019 31 78 4.8 12.9 0.00 0.00 0.00 43 1009.0
20260831234520 31 54 4.8 17.7 0.00 0.00 0.00 43 1009.0
20260831234020 32 163 1.6 17.7 0.00 0.00 0.00 43 1009.2
20260831233519 32 143 3.2 11.3 0.00 0.00 0.00 42 1009.3
20260831233018 32 167 0.0 11.3 0.00 0.00 0.00 43 1009.2
20260831232524 32 67 4.8 17.7 0.00 0.00 0.00 42 1009.2
20260831232018 32 78 6.4 17.7 0.00 0.00 0.00 41 1009.3
20260831231517 32 29 3.2 14.5 0.00 0.00 0.00 41 1009.4
20260831231018 31 36 1.6 17.7 0.00 0.00 0.00 43 1009.6
20260831230517 31 85 6.4 16.1 0.00 0.00 0.00 42 1009.6
20260831230017 31 50 8.0 16.1 0.00 0.00 0.00 42 1009.5
20260831225515 32 167 6.4 14.5 0.00 0.00 0.00 42 1009.5
20260831225014 31 110 1.6 16.1 0.00 0.00 0.00 45 1009.5
20260831224514 31 45 6.4 16.1 0.00 0.00 0.00 46 1009.7
20260831224013 31 115 4.8 19.3 0.00 0.00 0.00 45 1009.6
20260831223513 31 58 8.0 19.3 0.00 0.00 0.00 45 1009.8
20260831223013 31 115 4.8 14.5 0.00 0.00 0.00 45 1009.8
20260831222513 31 86 3.2 16.1 0.00 0.00 0.00 46 1009.7
20260831222011 31 49 6.4 16.1 0.00 0.00 0.00 46 1009.9
20260831221523 31 200 4.8 20.9 0.00 0.00 0.00 46 1010.0
20260831221015 31 73 9.7 20.9 0.00 0.00 0.00 45 1010.1